Retour au catalogue

STARLINK-35564

ActifCommunicationsVLEO
NORAD 67420·PAYLOAD·🇺🇸 United States

Lancé Jan 12, 2026 depuis Cape Canaveral Space Force Station

Loading…

Prochains Passages (prochaines 24 heures)

TLE

FraisSource: CelesTrak SupGP

Époque: Sep 14, 2026, 21:32 UTC

1 67420C 26005S   26257.89770833  .00040841  00000+0  14798-2 0  2573
2 67420  43.0025 249.5026 0001423 262.6864  60.2473 15.27545286    15

Suivez STARLINK-35564 en temps réel avec AllMySat

Download on the App Store